Location: Penton Mewsey
(51.2167°N, 1.5167°W)
Time: 17:41:45
(UTC+00:00)

Resurs 01 Rocket - Pass Details

Date: 30 March 2020
Orbit: 635 x 644 km, 98.0° (Epoch: 28 May)

Event Time Altitude Azimuth Distance (km) Brightness Sun altitude
Exits shadow 21:54:04 11° 238° (WSW) 1,984 4.2 -27.4°
Maximum altitude 21:56:27 15° 272° (W) 1,707 4.2 -27.6°
Drops below altitude 10° 21:59:03 10° 308° (NW) 2,032 5.1 -27.9°
Sets 22:02:09 0° 331° (NNW) 2,949 6.3 -28.2°
